Tomahawk, WI

7:21 AM CDT on October 17, 2017 (GMT -0500)
Tomahawk

Weather History for KTKV - September, 2013

Change the Weather History Date:

Thursday, September 26, 2013

  Actual Average (KRHI) Record (KRHI)
Temperature  
Mean Temperature 52 °F -  
Max Temperature 70 °F 63 °F 84 °F (1920)
Min Temperature 34 °F 41 °F 23 °F (1926)
Degree Days  
Heating Degree Days 13    
Growing Degree Days 2 (Base 50)    
Moisture  
Dew Point 47 °F    
Average Humidity 80    
Maximum Humidity 98    
Minimum Humidity 49    
Precipitation  
Precipitation 0.00 in - - ()
Sea Level Pressure  
Sea Level Pressure 30.06 in    
Wind  
Wind Speed 2 mph (SE)    
Max Wind Speed 9 mph    
Max Gust Speed 16 mph    
Visibility 7 miles    
Events Fog , Rain    
Averages and records for this station are not official NWS values.
T = Trace of Precipitation, MM = Missing Value Source: NWS Daily Summary

Daily Weather History Graph

Daily Weather History Graph

Search for Another Location

Airport or City:

Trip Planner

Search our weather history database for the weather conditions in past years. The results will help you decide how hot, cold, wet, or windy it might be!

Date:

Astronomy

Sep. 26, 2013 Rise Set
Actual Time 6:51 AM CDT 6:48 PM CDT
Civil Twilight 6:22 AM CDT 7:18 PM CDT
Nautical Twilight 5:47 AM CDT 7:52 PM CDT
Astronomical Twilight 5:12 AM CDT 8:27 PM CDT
Moon 11:32 PM CDT (9/26) 1:58 PM CDT (9/26)
Length of Visible Light 12h 56m
Length of Day
11h 57m
Waning Gibbous, 54% of the Moon is Illuminated
Sep 26
Waning Gibbous
Sep 26
Last Quarter
Oct 4
New
Oct 11
First Quarter
Oct 18
Full

Hourly Weather History & Observations

Time (CDT) Temp. Windchill Dew Point Humidity Pressure Visibility Wind Dir Wind Speed Gust Speed Precip Events Conditions
12:15 AM 38.5 °F - 37.4 °F 96% 30.03 in 10.0 mi Calm Calm - N/A   Clear
12:35 AM 39.4 °F - 38.3 °F 96% 30.04 in 3.0 mi Calm Calm - N/A   Clear
12:55 AM 42.1 °F - 41.0 °F 96% 30.03 in 2.5 mi Calm Calm - N/A   Clear
1:15 AM 40.6 °F - 39.6 °F 96% 30.03 in 0.5 mi Calm Calm - N/A Fog Fog
1:35 AM 41.2 °F - 40.1 °F 96% 30.04 in 1.2 mi Calm Calm - N/A   Mist
1:55 AM 36.1 °F - 34.9 °F 95% 30.04 in 0.2 mi Calm Calm - N/A Fog Fog
2:15 AM 37.6 °F - 36.5 °F 96% 30.04 in 1.0 mi Calm Calm - N/A   Mist
2:35 AM 35.8 °F - 34.7 °F 96% 30.04 in 0.5 mi Calm Calm - N/A Fog Fog
2:55 AM 35.2 °F - 34.2 °F 96% 30.04 in 0.2 mi Calm Calm - N/A Fog Fog
3:15 AM 35.6 °F - 34.7 °F 97% 30.05 in 0.2 mi Calm Calm - N/A Fog Fog
3:35 AM 35.1 °F - 34.2 °F 97% 30.05 in 0.2 mi Calm Calm - N/A Fog Fog
3:55 AM 34.2 °F - 33.3 °F 97% 30.06 in 0.2 mi Calm Calm - N/A Fog Fog
4:15 AM 34.7 °F - 33.8 °F 97% 30.06 in 0.2 mi Calm Calm - N/A Fog Fog
4:35 AM 35.8 °F - 34.9 °F 97% 30.07 in 0.2 mi Calm Calm - N/A Fog Fog
4:55 AM 36.0 °F - 35.1 °F 97% 30.07 in 0.2 mi Calm Calm - N/A Fog Fog
5:15 AM 36.3 °F - 35.4 °F 97% 30.06 in 0.2 mi Calm Calm - N/A Fog Fog
5:35 AM 37.2 °F - 36.3 °F 97% 30.07 in 0.2 mi Calm Calm - N/A Fog Fog
5:55 AM 44.6 °F 43.1 °F 43.9 °F 97% 30.06 in 0.2 mi SE 3.5 mph - N/A   Overcast
6:15 AM 46.4 °F - 45.5 °F 97% 30.06 in 0.5 mi Calm Calm - N/A Rain Light Rain
6:35 AM 46.4 °F 44.3 °F 45.5 °F 97% 30.07 in 0.5 mi SE 4.6 mph - N/A   Drizzle
6:55 AM 45.9 °F 44.6 °F 45.1 °F 97% 30.07 in 0.5 mi SE 3.5 mph - N/A Fog Fog
7:15 AM 46.0 °F - 45.5 °F 98% 30.07 in 0.2 mi Calm Calm - N/A Fog Fog
7:35 AM 46.4 °F - 45.5 °F 97% 30.08 in 0.8 mi Calm Calm - N/A   Overcast
7:55 AM 46.4 °F 44.3 °F 45.5 °F 97% 30.08 in 1.2 mi SE 4.6 mph - N/A   Overcast
8:15 AM 46.8 °F - 46.0 °F 97% 30.08 in 1.0 mi SE 4.6 mph - N/A   Overcast
8:35 AM 47.5 °F - 46.8 °F 97% 30.08 in 2.5 mi Calm Calm - N/A   Overcast
8:55 AM 48.7 °F - 48.2 °F 98% 30.08 in 5.0 mi SE 3.5 mph - N/A   Mostly Cloudy
9:15 AM 49.5 °F - 48.7 °F 97% 30.08 in 7.0 mi ESE 3.5 mph - N/A   Scattered Clouds
9:35 AM 51.1 °F - 50.4 °F 97% 30.08 in 10.0 mi SE 4.6 mph - N/A   Clear
9:55 AM 53.1 °F - 52.2 °F 97% 30.08 in 10.0 mi SE 4.6 mph - N/A   Clear
10:15 AM 55.9 °F - 54.9 °F 96% 30.08 in 10.0 mi SSE 4.6 mph - N/A   Clear
10:35 AM 59.4 °F - 51.8 °F 76% 30.08 in 10.0 mi South 6.9 mph - N/A   Clear
10:55 AM 60.8 °F - 51.1 °F 70% 30.08 in 10.0 mi SE 8.1 mph - N/A   Clear
11:15 AM 62.8 °F - 52.0 °F 68% 30.08 in 10.0 mi SSE 3.5 mph - N/A   Clear
11:35 AM 64.2 °F - 51.8 °F 64% 30.08 in 10.0 mi South 6.9 mph - N/A   Clear
11:55 AM 65.3 °F - 51.3 °F 60% 30.07 in 10.0 mi South 4.6 mph - N/A   Clear
12:15 PM 66.0 °F - 51.3 °F 59% 30.07 in 10.0 mi SSE 6.9 mph - N/A   Clear
12:35 PM 67.1 °F - 52.0 °F 58% 30.07 in 10.0 mi SSE 4.6 mph - N/A   Clear
12:55 PM 67.1 °F - 50.7 °F 56% 30.07 in 10.0 mi SSE 5.8 mph - N/A   Clear
1:15 PM 67.6 °F - 50.0 °F 53% 30.06 in 10.0 mi SSE 5.8 mph 16.1 mph N/A   Clear
1:35 PM 68.2 °F - 50.2 °F 53% 30.06 in 10.0 mi South 5.8 mph - N/A   Clear
1:55 PM 68.7 °F - 51.4 °F 54% 30.05 in 7.0 mi SE 9.2 mph - N/A   Clear
2:15 PM 69.1 °F - 50.2 °F 51% 30.05 in 10.0 mi SE 8.1 mph - N/A   Clear
2:35 PM 69.6 °F - 49.8 °F 49% 30.05 in 10.0 mi SE 5.8 mph - N/A   Clear
2:55 PM 69.8 °F - 50.4 °F 50% 30.05 in 7.0 mi SE 5.8 mph - N/A   Clear
3:15 PM 70.5 °F - 50.7 °F 49% 30.04 in 10.0 mi SSE 3.5 mph - N/A   Clear
3:35 PM 70.2 °F - 50.5 °F 50% 30.04 in 10.0 mi SSE 4.6 mph - N/A   Clear
3:55 PM 70.0 °F - 50.4 °F 50% 30.04 in 10.0 mi SSE 3.5 mph - N/A   Clear
4:15 PM 69.8 °F - 51.1 °F 51% 30.04 in 10.0 mi SSE 4.6 mph - N/A   Clear
4:35 PM 69.3 °F - 50.5 °F 51% 30.04 in 10.0 mi SSE 4.6 mph - N/A   Clear
4:55 PM 68.7 °F - 51.1 °F 53% 30.04 in 10.0 mi SE 6.9 mph - N/A   Clear
5:15 PM 68.0 °F - 51.3 °F 55% 30.04 in 10.0 mi Calm Calm - N/A   Clear
5:35 PM 67.3 °F - 52.0 °F 58% 30.05 in 10.0 mi Calm Calm - N/A   Clear
5:55 PM 66.4 °F - 52.5 °F 61% 30.05 in 10.0 mi SE 3.5 mph - N/A   Clear
6:15 PM 64.2 °F - 52.9 °F 67% 30.05 in 10.0 mi SE 4.6 mph - N/A   Clear
6:35 PM 61.7 °F - 52.7 °F 72% 30.05 in 10.0 mi Calm Calm - N/A   Clear
6:55 PM 59.2 °F - 52.3 °F 78% 30.05 in 10.0 mi Calm Calm - N/A   Clear
7:15 PM 59.0 °F - 52.7 °F 80% 30.04 in 10.0 mi ESE 3.5 mph - N/A   Clear
7:35 PM 59.4 °F - 52.7 °F 79% 30.04 in 10.0 mi ESE 4.6 mph - N/A   Clear
7:55 PM 59.2 °F - 52.7 °F 79% 30.05 in 10.0 mi ESE 4.6 mph - N/A   Clear
8:15 PM 59.0 °F - 52.5 °F 79% 30.05 in 10.0 mi ESE 3.5 mph - N/A   Clear
8:35 PM 57.9 °F - 51.8 °F 80% 30.05 in 10.0 mi Calm Calm - N/A   Clear
8:55 PM 55.9 °F - 51.1 °F 84% 30.06 in 10.0 mi Calm Calm - N/A   Clear
9:15 PM 55.0 °F - 50.9 °F 86% 30.06 in 10.0 mi Calm Calm - N/A   Clear
9:35 PM 54.3 °F - 50.4 °F 86% 30.06 in 10.0 mi Calm Calm - N/A   Clear
9:55 PM 55.2 °F - 50.5 °F 84% 30.07 in 10.0 mi ESE 3.5 mph - N/A   Clear
10:15 PM 55.8 °F - 50.5 °F 83% 30.07 in 10.0 mi ESE 4.6 mph - N/A   Clear
10:35 PM 55.0 °F - 50.5 °F 85% 30.07 in 10.0 mi SE 4.6 mph - N/A   Clear
10:55 PM 54.9 °F - 50.9 °F 86% 30.07 in 10.0 mi SE 3.5 mph - N/A   Clear
11:15 PM 54.7 °F - 51.1 °F 88% 30.07 in 10.0 mi SE 3.5 mph - N/A   Clear
11:35 PM 54.9 °F - 51.6 °F 89% 30.08 in 10.0 mi Calm Calm - N/A   Clear
11:55 PM 54.7 °F - 51.8 °F 90% 30.08 in 10.0 mi SE 3.5 mph - N/A   Clear